#timestamp,LO_Frequency,Hit,StdDev 
1549252815.2,286046996.9,N
1549252835.0,286046999.2,N
1549252835.9,286046999.2,N
1549252855.8,286046997.1,N
1549252875.6,286046996.7,N
1549252895.4,286046997.7,N
1549252915.3,286046995.0,N
1549252935.1,286046993.7,Y
1549252955.8,286046995.5,P
1549252975.7,286046995.2,P
1549252995.5,286046997.6,N
1549253015.4,286046997.5,N
1549253035.2,286046999.6,N
1549253055.0,286046997.5,N
1549253075.0,286046997.1,N
1549253075.9,286046997.1,N
1549253095.8,286046997.4,N
1549253115.6,286046997.0,N
1549253135.5,286046994.9,Y
1549253155.3,286047001.2,P
1549253175.1,286046998.3,N
1549253195.9,286046998.8,N
1549253215.7,286046998.6,N
1549253235.6,286046998.8,N
1549253255.4,286046998.7,N
1549253275.2,286046998.7,N
1549253295.1,286046998.7,N
1549253296.0,286046998.7,N
1549253315.8,286047000.8,N
1549253335.6,286046996.9,N
1549253355.5,286046999.1,N
1549253375.3,286046998.7,N
1549253395.1,286047000.8,N
1549253415.9,286047000.8,N
1549253435.7,286047001.1,N
1549253455.6,286046998.1,N
1549253475.4,286046999.6,N
1549253495.2,286046996.6,N
1549253515.1,286046997.3,N
1549253516.0,286046997.3,N
1549253535.8,286046996.7,N
1549253555.7,286046996.7,N
1549253575.5,286046998.6,N
1549253595.3,286046998.2,N
1549253615.2,286047000.2,N
1549253635.9,286046998.9,N
1549253655.7,286046999.5,N
1549253675.6,286046999.1,N
1549253695.4,286046999.1,N
1549253715.3,286046996.9,N
1549253735.1,286046999.0,N
1549253736.0,286046999.0,N
1549253755.8,286046999.6,N
1549253775.7,286046999.3,N
1549253795.5,286046999.2,N
1549253815.3,286046997.6,N
1549253835.2,286046995.6,Y
1549253855.0,286046996.7,P
1549253855.9,286046996.7,P
1549253875.8,286046995.0,P
1549253895.6,286046996.0,Y
1549253915.4,286046997.0,P
1549253935.3,286046998.6,P
1549253955.1,286047001.2,N
1549253975.9,286047000.6,N
1549253995.7,286047002.4,N
1549254015.5,286047002.4,N
1549254035.4,286047001.3,N
1549254055.2,286046999.8,N
1549254075.0,286047002.5,N
1549254075.9,286047002.5,N
1549254095.8,286047000.1,N
1549254115.6,286047000.5,N
1549254135.5,286047000.6,N
1549254155.3,286047000.3,N
1549254175.1,286047000.5,N
1549254195.9,286047000.3,N
1549254215.7,286047002.6,N
1549254235.5,286047000.5,N
1549254255.4,286047000.6,N
1549254275.2,286047000.0,N
1549254295.1,286047000.1,N
1549254296.0,286047000.1,N
1549254315.8,286047001.6,N
1549254335.6,286047002.7,N
1549254355.5,286047000.2,N
1549254375.3,286047000.3,N
1549254395.1,286047002.2,N
1549254415.9,286047001.6,N
1549254435.7,286047003.8,N
1549254455.6,286047003.9,N
1549254475.4,286047003.9,N
1549254495.2,286047003.0,N
1549254515.1,286047002.9,N
1549254516.0,286047002.9,N
1549254535.8,286047003.4,N
1549254555.6,286047003.6,N
1549254575.5,286047005.7,Y
1549254595.3,286047003.7,P
1549254615.2,286047003.5,P
1549254635.0,286047003.5,P
1549254635.9,286047003.5,Y
1549254655.7,286047000.4,P
1549254675.6,286047002.5,N
1549254695.4,286047001.7,N
1549254715.3,286047001.3,N
1549254735.1,286047002.4,N
1549254755.8,286046999.8,N
1549254775.7,286047000.7,N
1549254795.5,286047000.7,N
1549254815.4,286047002.3,N
1549254835.2,286047002.3,N
1549254855.0,286047004.1,Y
1549254855.9,286047004.1,P
1549254875.8,286047002.0,N
1549254895.6,286047000.1,N
1549254915.5,286047011.9,Y
1549254935.3,286046998.9,P
1549254955.1,286047001.2,N
1549254975.9,286047000.5,N
1549254995.7,286047000.5,N
1549255015.6,286046999.7,N
1549255035.4,286047000.7,N
1549255055.2,286046999.9,N
1549255075.1,286046999.7,N
1549255076.0,286046999.7,N
1549255095.8,286047002.3,N
1549255115.6,286047001.9,N
1549255135.5,286047001.8,N
1549255155.3,286047004.4,Y
1549255175.2,286047002.2,P
1549255195.9,286047002.3,N
1549255215.7,286046999.8,N
1549255235.6,286047002.6,N
1549255255.4,286047002.8,N
1549255275.2,286047000.9,N
1549255295.1,286046998.3,N
1549255296.0,286046998.3,N
1549255315.8,286046999.0,N
1549255335.7,286047000.5,N
1549255355.5,286047000.4,N
1549255375.3,286047002.0,N
1549255395.2,286046999.9,N
1549255415.0,286047002.1,N
1549255415.9,286047002.1,N
1549255435.7,286047001.5,N
1549255455.6,286047004.1,N
1549255475.4,286047006.0,Y
1549255495.3,286047004.1,P
1549255515.1,286047003.2,N
1549255535.8,286047001.6,N
1549255555.7,286047002.5,N
1549255575.5,286047002.4,N
1549255595.4,286047001.5,N
1549255615.2,286047002.4,N
1549255635.0,286047002.7,N
1549255635.9,286047002.7,Y
1549255655.8,286046999.3,P
1549255675.6,286046998.6,N
1549255695.5,286046999.2,N
1549255715.3,286046997.3,N
1549255735.1,286046996.9,N
1549255755.9,286046996.9,N
1549255775.7,286046999.3,N
1549255795.6,286046999.2,N
1549255815.4,286046999.1,N
1549255835.2,286046996.6,N
1549255855.1,286046998.9,N
1549255856.0,286046998.9,N
1549255875.8,286046998.5,N
1549255895.6,286047001.1,N
1549255915.5,286047002.8,N
1549255935.3,286046998.3,N
1549255955.2,286046999.6,N
1549255975.9,286046996.9,N
1549255995.7,286046998.8,N
1549256015.6,286046998.3,N
1549256035.4,286047000.8,N
1549256055.2,286047001.2,N
1549256075.1,286046998.7,N
1549256076.0,286046998.7,N
1549256095.8,286046999.1,N
1549256115.7,286046998.6,N
1549256135.5,286047000.2,N
1549256155.3,286046999.9,N
1549256175.2,286047000.0,N
1549256195.0,286047000.5,N
1549256195.9,286047000.5,N
1549256215.8,286047001.0,N
1549256235.6,286047000.0,N
1549256255.4,286047002.7,N
1549256275.3,286047002.1,N
1549256295.1,286047002.4,N
1549256315.8,286047002.4,N
1549256335.7,286047002.0,N
1549256355.5,286047001.5,N
1549256375.4,286047002.2,N
1549256395.2,286047002.6,N
